Flag for U.S.A. Weather past 2 weeks in Topeka, Kansas, U.S.A.

Now
72 °F

Partly cloudy.


Feels Like: 68 °F
Forecast: 64 / 87 °F
Wind: 5 mph from East

Location: Philip Billard Municipal Airport

Current Time: Sep 1, 2014 at 9:36:40 PM

Latest Report: Sep 1, 2014 at 8:53 PM


Visibility: 10 mi

Pressure: 29.84 "Hg

Humidity: 93%

Dew point: 70 °F

Location of TopekaLocation

Historic Weather in Topeka — Graph

°F

Topeka temperature yesterday

Maximum temperature yesterday: 96 °F (at 3:53 PM)
Minimum temperature yesterday: 68 °F (at 10:00 PM)
Average temperature yesterday: 81 °F

Past Weeks' High & Low Weather Summary

 TemperatureHumidityPressure
High100 °F (Aug 23, 3:53 PM)100% (Aug 31, 10:00 PM)30.14 "Hg (Aug 31, 10:00 PM)
Low67 °F (Aug 18, 3:53 AM)26% (Aug 23, 6:53 PM)29.63 "Hg (Aug 31, 6:53 PM)
Average83 °F65%29.86 "Hg
* Reported Aug 17 7:53 PM — Sep 1 7:53 PM, Topeka, Weather by CustomWeather, © 2014

Note: Actual official high and low records may vary slightly from our data, if they occured in-between our weather recording intervals... More about our weather records

Advertising

Topeka weather history for previous 24 hours

 ConditionsComfort  
Time TempWeatherWind HumidityBarometerVisibility
7:53 PM
Sep 1
75 °FLight rain. Mostly cloudy.5 mph90%29.81 "Hg10 mi
6:53 PM79 °FMostly cloudy.No wind77%29.84 "Hg10 mi
5:53 PM80 °FOvercast.No wind67%29.85 "Hg10 mi
4:53 PM79 °FOvercast.3 mph72%29.85 "Hg10 mi
3:53 PM80 °FOvercast.No wind64%29.85 "Hg10 mi
2:53 PM80 °FOvercast.5 mph64%29.87 "Hg10 mi
1:53 PM79 °FOvercast.5 mph67%29.88 "Hg10 mi
12:53 PM79 °FOvercast.9 mph67%29.88 "Hg10 mi
11:53 AM78 °FPartly sunny.12 mph66%29.89 "Hg10 mi
10:53 AM77 °FSunny.10 mph69%29.88 "Hg10 mi
9:53 AM71 °FSunny.10 mph81%29.86 "Hg10 mi
8:53 AM69 °FScattered clouds.8 mph90%29.83 "Hg10 mi
7:53 AM67 °FPartly sunny.10 mph93%29.83 "Hg10 mi
6:53 AM68 °FPassing clouds.10 mph90%29.80 "Hg10 mi
5:53 AM68 °FPassing clouds.9 mph93%29.78 "Hg10 mi
4:53 AM68 °FPassing clouds.14 mph93%29.76 "Hg10 mi
3:53 AM68 °FThunderstorms. Overcast.20 mph96%29.71 "Hg10 mi
2:53 AM68 °FThunderstorms. Overcast.12 mph96%29.81 "Hg8 mi
2:01 AM68 °FThundershowers. Fog.7 mph100%29.90 "Hg6 mi
12:53 AM68 °FThundershowers. Fog.12 mph96%29.80 "Hg6 mi
11:53 PM
Aug 31
68 °FThundershowers. Fog.7 mph96%29.84 "Hg6 mi
10:53 PM69 °FThundershowers. Mostly cloudy.12 mph96%29.78 "Hg9 mi
10:00 PM68 °FStrong thunderstorms. Fog.No wind100%29.82 "Hg2 mi
Weather by CustomWeather, © 2014

See weather overviewHow to use our weather pages